Time,TemperatureF,DewpointF,PressureIn,WindDirection,WindDirectionDegrees,WindSpeedMPH,WindSpeedGustMPH,Humidity,HourlyPrecipIn,Conditions,Clouds,dailyrainin,SoftwareType,DateUTC
2013-03-23 01:09:00,72.1,66.3,29.75,South,188,6.1,9.3,82,-99.99,,,0.00,CWS Microserver 1.4,2013-03-23 06:09:00,
2013-03-23 01:19:00,72.1,66.4,29.75,SSE,160,6.0,8.2,82,-99.99,,,0.00,CWS Microserver 1.4,2013-03-23 06:19:00,
2013-03-23 01:24:00,71.9,66.3,29.75,SSE,153,6.7,9.4,82,-99.99,,,0.00,CWS Microserver 1.4,2013-03-23 06:24:00,
2013-03-23 01:29:00,71.9,66.3,29.75,SSE,163,4.9,11.1,82,-99.99,,,0.00,CWS Microserver 1.4,2013-03-23 06:29:00,
2013-03-23 01:39:00,71.9,66.6,29.75,SSE,160,8.3,11.2,83,-99.99,,,0.00,CWS Microserver 1.4,2013-03-23 06:39:00,
2013-03-23 01:44:00,71.9,66.6,29.74,South,174,6.7,10.4,83,-99.99,,,0.00,CWS Microserver 1.4,2013-03-23 06:44:00,
2013-03-23 01:49:00,71.9,66.6,29.74,South,175,8.2,13.7,83,-99.99,,,0.00,CWS Microserver 1.4,2013-03-23 06:49:00,
2013-03-23 01:54:00,71.9,66.7,29.74,SE,132,6.9,13.7,83,-99.99,,,0.00,CWS Microserver 1.4,2013-03-23 06:54:00,
2013-03-23 01:59:00,71.9,66.7,29.74,SE,128,8.1,12.7,83,-99.99,,,0.00,CWS Microserver 1.4,2013-03-23 06:59:00,
2013-03-23 02:04:00,71.9,66.7,29.74,SSE,149,7.3,12.4,83,-99.99,,,0.00,CWS Microserver 1.4,2013-03-23 07:04:00,
2013-03-23 02:09:00,71.7,66.4,29.74,SSE,150,7.6,12.4,83,-99.99,,,0.00,CWS Microserver 1.4,2013-03-23 07:09:00,
2013-03-23 02:14:00,71.6,66.4,29.74,SE,140,6.9,12.5,83,-99.99,,,0.00,CWS Microserver 1.4,2013-03-23 07:14:00,
2013-03-23 02:19:00,71.6,66.4,29.74,SE,129,6.0,12.5,83,-99.99,,,0.00,CWS Microserver 1.4,2013-03-23 07:19:00,
2013-03-23 02:24:00,71.4,66.2,29.73,SE,140,9.6,9.6,83,-99.99,,,0.00,CWS Microserver 1.4,2013-03-23 07:24:00,
2013-03-23 02:29:00,71.4,66.2,29.73,SSE,152,8.7,15.2,83,-99.99,,,0.00,CWS Microserver 1.4,2013-03-23 07:29:00,
2013-03-23 02:34:00,71.4,66.2,29.73,ESE,115,10.0,15.2,83,-99.99,,,0.00,CWS Microserver 1.4,2013-03-23 07:34:00,
2013-03-23 02:39:00,71.4,66.2,29.72,SSE,150,5.2,13.0,83,-99.99,,,0.00,CWS Microserver 1.4,2013-03-23 07:39:00,
2013-03-23 02:44:00,71.2,66.1,29.72,SE,137,4.1,12.5,84,-99.99,,,0.00,CWS Microserver 1.4,2013-03-23 07:44:00,
2013-03-23 02:49:00,71.2,66.2,29.72,SE,137,4.1,12.5,84,-99.99,,,0.00,CWS Microserver 1.4,2013-03-23 07:49:00,
2013-03-23 02:54:00,71.2,66.2,29.70,ESE,123,7.5,7.5,84,-99.99,,,0.00,CWS Microserver 1.4,2013-03-23 07:54:00,
2013-03-23 02:59:00,71.2,66.3,29.70,ESE,118,11.3,11.3,84,-99.99,,,0.00,CWS Microserver 1.4,2013-03-23 07:59:00,
2013-03-23 03:04:00,71.2,66.3,29.70,SE,134,8.9,16.8,84,-99.99,,,0.00,CWS Microserver 1.4,2013-03-23 08:04:00,
2013-03-23 03:09:00,71.0,66.2,29.69,SSE,159,8.5,16.8,85,-99.99,,,0.00,CWS Microserver 1.4,2013-03-23 08:09:00,
2013-03-23 03:14:00,71.0,66.2,29.69,SSE,147,8.2,15.6,85,-99.99,,,0.00,CWS Microserver 1.4,2013-03-23 08:14:00,
2013-03-23 03:19:00,71.0,66.3,29.69,SE,134,6.5,15.6,85,-99.99,,,0.00,CWS Microserver 1.4,2013-03-23 08:19:00,
2013-03-23 03:24:00,71.0,66.3,29.68,SE,134,15.1,15.1,85,-99.99,,,0.00,CWS Microserver 1.4,2013-03-23 08:24:00,
2013-03-23 03:29:00,70.8,66.1,29.68,SE,137,11.8,15.1,85,-99.99,,,0.00,CWS Microserver 1.4,2013-03-23 08:29:00,
2013-03-23 03:34:00,70.8,66.1,29.68,South,173,6.8,15.1,85,-99.99,,,0.00,CWS Microserver 1.4,2013-03-23 08:34:00,
2013-03-23 03:39:00,70.8,66.1,29.68,SE,127,4.7,14.6,85,-99.99,,,0.00,CWS Microserver 1.4,2013-03-23 08:39:00,
2013-03-23 03:44:00,70.8,66.1,29.68,SSE,157,9.6,14.6,85,-99.99,,,0.00,CWS Microserver 1.4,2013-03-23 08:44:00,
2013-03-23 03:49:00,70.8,66.1,29.68,SE,143,9.0,15.4,85,-99.99,,,0.00,CWS Microserver 1.4,2013-03-23 08:49:00,
2013-03-23 03:54:00,70.8,66.2,29.68,SE,141,12.1,15.4,85,-99.99,,,0.00,CWS Microserver 1.4,2013-03-23 08:54:00,
2013-03-23 03:59:00,70.8,66.3,29.68,SSE,155,6.8,15.3,85,-99.99,,,0.00,CWS Microserver 1.4,2013-03-23 08:59:00,
2013-03-23 04:04:00,70.8,66.3,29.68,ESE,117,10.1,10.8,85,-99.99,,,0.00,CWS Microserver 1.4,2013-03-23 09:04:00,
2013-03-23 04:09:00,70.8,66.3,29.67,SE,133,4.7,11.6,85,-99.99,,,0.00,CWS Microserver 1.4,2013-03-23 09:09:00,
2013-03-23 04:14:00,70.8,66.2,29.67,East,99,4.6,11.6,85,-99.99,,,0.00,CWS Microserver 1.4,2013-03-23 09:14:00,
2013-03-23 04:19:00,70.8,66.2,29.67,SE,136,6.7,8.0,85,-99.99,,,0.00,CWS Microserver 1.4,2013-03-23 09:19:00,
2013-03-23 04:24:00,70.8,66.2,29.67,ESE,120,4.6,8.0,85,-99.99,,,0.00,CWS Microserver 1.4,2013-03-23 09:24:00,
2013-03-23 04:29:00,71.0,66.3,29.67,SE,132,5.0,8.8,85,-99.99,,,0.00,CWS Microserver 1.4,2013-03-23 09:29:00,
2013-03-23 04:34:00,71.0,66.2,29.68,ESE,118,9.1,9.2,84,-99.99,,,0.00,CWS Microserver 1.4,2013-03-23 09:34:00,
2013-03-23 04:39:00,71.0,66.2,29.68,ESE,118,9.1,9.2,84,-99.99,,,0.00,CWS Microserver 1.4,2013-03-23 09:39:00,
2013-03-23 04:44:00,71.2,66.3,29.69,ESE,118,9.1,9.2,84,-99.99,,,0.00,CWS Microserver 1.4,2013-03-23 09:44:00,
2013-03-23 04:49:00,71.2,66.2,29.68,South,169,3.4,4.4,84,-99.99,,,0.00,CWS Microserver 1.4,2013-03-23 09:49:00,
2013-03-23 04:54:00,71.2,66.2,29.68,SSE,164,4.8,5.7,84,-99.99,,,0.00,CWS Microserver 1.4,2013-03-23 09:54:00,
2013-03-23 04:59:00,71.2,66.2,29.68,SSE,154,5.4,6.3,84,-99.99,,,0.00,CWS Microserver 1.4,2013-03-23 09:59:00,
2013-03-23 05:04:00,71.2,66.1,29.69,SE,140,5.4,7.1,84,-99.99,,,0.00,CWS Microserver 1.4,2013-03-23 10:04:00,
2013-03-23 05:09:00,71.2,66.1,29.69,SSE,151,3.6,7.1,84,-99.99,,,0.00,CWS Microserver 1.4,2013-03-23 10:09:00,
2013-03-23 05:19:00,71.2,66.1,29.69,SSE,151,3.6,7.1,83,-99.99,,,0.00,CWS Microserver 1.4,2013-03-23 10:19:00,
2013-03-23 05:24:00,71.4,66.2,29.69,SE,131,2.1,4.8,83,-99.99,,,0.00,CWS Microserver 1.4,2013-03-23 10:24:00,
2013-03-23 05:34:00,71.4,66.2,29.69,SSE,165,4.1,8.3,83,-99.99,,,0.00,CWS Microserver 1.4,2013-03-23 10:34:00,
2013-03-23 05:39:00,71.4,66.2,29.69,SSE,166,2.8,10.3,83,-99.99,,,0.00,CWS Microserver 1.4,2013-03-23 10:39:00,
2013-03-23 05:44:00,71.4,66.2,29.69,ENE,78,1.5,10.3,83,-99.99,,,0.00,CWS Microserver 1.4,2013-03-23 10:44:00,
2013-03-23 05:49:00,71.2,66.0,29.70,SSE,156,3.5,7.3,83,-99.99,,,0.00,CWS Microserver 1.4,2013-03-23 10:49:00,
2013-03-23 05:54:00,71.2,66.0,29.70,ESE,119,5.5,7.3,83,-99.99,,,0.00,CWS Microserver 1.4,2013-03-23 10:54:00,
2013-03-23 05:59:00,71.2,66.0,29.70,SE,131,4.0,6.0,83,-99.99,,,0.00,CWS Microserver 1.4,2013-03-23 10:59:00,
2013-03-23 06:04:00,71.2,66.0,29.70,SSE,160,5.1,6.1,83,-99.99,,,0.00,CWS Microserver 1.4,2013-03-23 11:04:00,
2013-03-23 06:14:00,71.2,66.0,29.70,SE,144,2.3,5.7,83,-99.99,,,0.00,CWS Microserver 1.4,2013-03-23 11:14:00,
2013-03-23 06:19:00,71.2,66.1,29.72,SE,139,2.8,5.7,83,-99.99,,,0.00,CWS Microserver 1.4,2013-03-23 11:19:00,
2013-03-23 06:24:00,71.2,66.1,29.72,SE,139,2.8,5.7,83,-99.99,,,0.00,CWS Microserver 1.4,2013-03-23 11:24:00,
2013-03-23 06:29:00,71.2,66.1,29.72,SE,139,2.8,5.7,84,-99.99,,,0.00,CWS Microserver 1.4,2013-03-23 11:29:00,
2013-03-23 06:34:00,71.2,66.1,29.72,SSE,159,1.4,1.9,84,-99.99,,,0.00,CWS Microserver 1.4,2013-03-23 11:34:00,
2013-03-23 06:39:00,71.2,66.2,29.72,ESE,121,2.5,4.0,84,-99.99,,,0.00,CWS Microserver 1.4,2013-03-23 11:39:00,
2013-03-23 06:44:00,71.2,66.2,29.73,SE,124,3.1,4.0,84,-99.99,,,0.00,CWS Microserver 1.4,2013-03-23 11:44:00,
2013-03-23 06:49:00,71.2,66.2,29.73,SE,143,3.9,4.1,84,-99.99,,,0.00,CWS Microserver 1.4,2013-03-23 11:49:00,
2013-03-23 06:54:00,71.2,66.2,29.73,SE,127,3.6,4.4,84,-99.99,,,0.00,CWS Microserver 1.4,2013-03-23 11:54:00,
2013-03-23 06:59:00,71.2,66.2,29.73,SE,127,3.6,4.4,84,-99.99,,,0.00,CWS Microserver 1.4,2013-03-23 11:59:00,
2013-03-23 07:04:00,71.2,66.2,29.73,SE,127,3.6,4.4,84,-99.99,,,0.00,CWS Microserver 1.4,2013-03-23 12:04:00,
2013-03-23 07:09:00,71.2,66.2,29.73,ESE,119,2.5,3.0,84,-99.99,,,0.00,CWS Microserver 1.4,2013-03-23 12:09:00,
2013-03-23 07:19:00,71.2,66.2,29.73,NNW,335,8.0,13.7,84,-99.99,,,0.00,CWS Microserver 1.4,2013-03-23 12:19:00,
2013-03-23 07:24:00,71.2,66.2,29.73,NNW,344,13.0,15.9,84,-99.99,,,0.00,CWS Microserver 1.4,2013-03-23 12:24:00,
2013-03-23 07:29:00,65.3,57.3,29.74,NNW,342,11.4,15.9,75,-99.99,,,0.00,CWS Microserver 1.4,2013-03-23 12:29:00,
2013-03-23 07:34:00,65.1,57.4,29.74,NNW,346,10.2,15.4,76,-99.99,,,0.00,CWS Microserver 1.4,2013-03-23 12:34:00,
2013-03-23 07:39:00,65.1,57.7,29.74,NNW,341,8.3,15.4,77,-99.99,,,0.00,CWS Microserver 1.4,2013-03-23 12:39:00,
2013-03-23 07:44:00,65.1,57.7,29.74,NNW,337,7.1,11.5,77,-99.99,,,0.00,CWS Microserver 1.4,2013-03-23 12:44:00,
2013-03-23 07:49:00,65.1,57.9,29.74,North,10,9.7,11.1,77,-99.99,,,0.00,CWS Microserver 1.4,2013-03-23 12:49:00,
2013-03-23 07:54:00,65.1,57.9,29.74,NW,325,8.7,11.2,77,-99.99,,,0.00,CWS Microserver 1.4,2013-03-23 12:54:00,
2013-03-23 07:59:00,65.1,57.9,29.74,North,5,7.8,12.6,77,-99.99,,,0.00,CWS Microserver 1.4,2013-03-23 12:59:00,
2013-03-23 08:04:00,65.1,57.9,29.74,NNE,12,7.4,12.6,77,-99.99,,,0.00,CWS Microserver 1.4,2013-03-23 13:04:00,
2013-03-23 08:09:00,65.1,57.9,29.74,North,356,9.1,12.6,77,-99.99,,,0.00,CWS Microserver 1.4,2013-03-23 13:09:00,
2013-03-23 08:14:00,64.2,57.3,29.74,NNE,14,10.2,10.2,78,-99.99,,,0.00,CWS Microserver 1.4,2013-03-23 13:14:00,
2013-03-23 08:19:00,64.4,57.8,29.74,NNE,18,8.2,10.2,79,-99.99,,,0.00,CWS Microserver 1.4,2013-03-23 13:19:00,
2013-03-23 08:24:00,64.7,58.1,29.74,North,354,3.9,9.2,79,-99.99,,,0.00,CWS Microserver 1.4,2013-03-23 13:24:00,
2013-03-23 08:29:00,64.7,58.2,29.75,North,9,4.9,9.2,79,-99.99,,,0.00,CWS Microserver 1.4,2013-03-23 13:29:00,
2013-03-23 08:34:00,64.7,58.3,29.75,North,10,5.4,9.2,79,-99.99,,,0.00,CWS Microserver 1.4,2013-03-23 13:34:00,
2013-03-23 08:39:00,64.7,58.3,29.75,North,352,5.7,9.2,79,-99.99,,,0.00,CWS Microserver 1.4,2013-03-23 13:39:00,
2013-03-23 08:44:00,64.7,58.3,29.75,North,351,5.5,8.0,79,-99.99,,,0.00,CWS Microserver 1.4,2013-03-23 13:44:00,
2013-03-23 08:49:00,64.4,58.2,29.75,North,351,5.5,8.0,80,-99.99,,,0.00,CWS Microserver 1.4,2013-03-23 13:49:00,
2013-03-23 08:54:00,64.2,58.1,29.75,North,351,5.5,8.0,80,-99.99,,,0.00,CWS Microserver 1.4,2013-03-23 13:54:00,
2013-03-23 08:59:00,64.2,58.3,29.75,North,4,6.3,7.1,81,-99.99,,,0.00,CWS Microserver 1.4,2013-03-23 13:59:00,
2013-03-23 09:04:00,64.2,58.2,29.75,North,7,6.2,7.9,80,-99.99,,,0.00,CWS Microserver 1.4,2013-03-23 14:04:00,
2013-03-23 09:09:00,64.2,58.2,29.75,NE,44,4.3,7.9,80,-99.99,,,0.00,CWS Microserver 1.4,2013-03-23 14:09:00,
2013-03-23 09:14:00,64.2,58.2,29.75,North,10,9.4,9.5,80,-99.99,,,0.00,CWS Microserver 1.4,2013-03-23 14:14:00,
2013-03-23 09:19:00,64.2,58.7,29.75,North,5,7.0,10.3,82,-99.99,,,0.00,CWS Microserver 1.4,2013-03-23 14:19:00,
2013-03-23 09:24:00,64.2,58.8,29.75,NNW,338,6.0,10.3,82,-99.99,,,0.00,CWS Microserver 1.4,2013-03-23 14:24:00,
2013-03-23 09:29:00,64.4,59.0,29.74,North,7,5.5,9.5,82,-99.99,,,0.00,CWS Microserver 1.4,2013-03-23 14:29:00,
2013-03-23 09:34:00,64.4,59.0,29.74,North,2,7.2,9.4,82,-99.99,,,0.00,CWS Microserver 1.4,2013-03-23 14:34:00,
2013-03-23 09:39:00,64.4,59.0,29.74,North,1,6.3,9.4,82,-99.99,,,0.00,CWS Microserver 1.4,2013-03-23 14:39:00,
2013-03-23 09:44:00,64.4,59.0,29.74,ENE,60,6.9,8.0,82,-99.99,,,0.00,CWS Microserver 1.4,2013-03-23 14:44:00,
2013-03-23 09:49:00,64.4,59.0,29.74,NNE,15,8.0,9.2,82,-99.99,,,0.00,CWS Microserver 1.4,2013-03-23 14:49:00,
2013-03-23 09:54:00,64.4,59.4,29.74,NNE,23,6.8,9.2,84,-99.99,,,0.00,CWS Microserver 1.4,2013-03-23 14:54:00,
2013-03-23 10:04:00,64.4,59.5,29.74,NNE,16,5.9,7.8,84,-99.99,,,0.00,CWS Microserver 1.4,2013-03-23 15:04:00,
2013-03-23 10:09:00,64.4,59.7,29.74,NNE,23,7.7,8.6,84,-99.99,,,0.00,CWS Microserver 1.4,2013-03-23 15:09:00,
2013-03-23 10:19:00,64.4,59.9,29.74,North,352,6.6,8.4,85,-99.99,,,0.00,CWS Microserver 1.4,2013-03-23 15:19:00,
2013-03-23 10:24:00,64.4,59.9,29.74,North,5,5.5,9.7,85,-99.99,,,0.00,CWS Microserver 1.4,2013-03-23 15:24:00,
2013-03-23 10:29:00,64.4,59.9,29.74,North,1,6.9,9.7,85,-99.99,,,0.00,CWS Microserver 1.4,2013-03-23 15:29:00,
2013-03-23 10:34:00,64.2,59.7,29.74,North,1,6.9,9.7,85,-99.99,,,0.00,CWS Microserver 1.4,2013-03-23 15:34:00,
2013-03-23 10:39:00,64.2,59.8,29.74,North,1,6.9,9.7,85,-99.99,,,0.00,CWS Microserver 1.4,2013-03-23 15:39:00,
2013-03-23 10:44:00,64.2,59.8,29.74,NE,44,4.4,6.3,85,-99.99,,,0.00,CWS Microserver 1.4,2013-03-23 15:44:00,
2013-03-23 10:49:00,64.2,59.8,29.74,NNE,13,6.2,7.0,85,-99.99,,,0.00,CWS Microserver 1.4,2013-03-23 15:49:00,
2013-03-23 10:59:00,64.2,59.8,29.74,NNE,19,4.1,7.7,85,-99.99,,,0.00,CWS Microserver 1.4,2013-03-23 15:59:00,
2013-03-23 11:04:00,64.5,60.0,29.73,NE,41,5.0,7.5,85,-99.99,,,0.00,CWS Microserver 1.4,2013-03-23 16:04:00,
2013-03-23 11:09:00,64.7,60.2,29.73,NE,44,3.6,6.5,85,-99.99,,,0.00,CWS Microserver 1.4,2013-03-23 16:09:00,
2013-03-23 11:14:00,65.1,60.5,29.73,NE,54,5.3,7.9,85,-99.99,,,0.00,CWS Microserver 1.4,2013-03-23 16:14:00,
2013-03-23 11:19:00,65.3,60.6,29.73,NE,43,3.5,8.0,84,-99.99,,,0.00,CWS Microserver 1.4,2013-03-23 16:19:00,
2013-03-23 11:24:00,65.4,60.6,29.73,NNE,33,5.1,8.5,84,-99.99,,,0.00,CWS Microserver 1.4,2013-03-23 16:24:00,
2013-03-23 11:29:00,66.0,60.9,29.73,NNE,16,5.5,8.5,83,-99.99,,,0.00,CWS Microserver 1.4,2013-03-23 16:29:00,
2013-03-23 11:34:00,66.0,60.9,29.73,NE,48,6.3,9.3,83,-99.99,,,0.00,CWS Microserver 1.4,2013-03-23 16:34:00,
2013-03-23 11:39:00,66.5,61.2,29.72,ENE,59,8.8,9.3,83,-99.99,,,0.00,CWS Microserver 1.4,2013-03-23 16:39:00,
2013-03-23 11:44:00,67.1,61.6,29.73,ENE,59,8.8,9.3,82,-99.99,,,0.00,CWS Microserver 1.4,2013-03-23 16:44:00,
2013-03-23 11:49:00,67.2,61.5,29.73,ENE,59,8.8,9.3,82,-99.99,,,0.00,CWS Microserver 1.4,2013-03-23 16:49:00,
2013-03-23 11:54:00,67.4,61.7,29.72,ENE,59,8.8,9.3,82,-99.99,,,0.00,CWS Microserver 1.4,2013-03-23 16:54:00,
2013-03-23 11:59:00,67.8,62.2,29.72,NNE,15,5.7,8.1,82,-99.99,,,0.00,CWS Microserver 1.4,2013-03-23 16:59:00,
2013-03-23 12:04:00,68.0,62.3,29.72,North,11,5.1,8.1,82,-99.99,,,0.00,CWS Microserver 1.4,2013-03-23 17:04:00,
2013-03-23 12:09:00,68.1,62.1,29.72,North,0,8.1,8.7,81,-99.99,,,0.00,CWS Microserver 1.4,2013-03-23 17:09:00,
2013-03-23 12:14:00,68.3,62.2,29.72,NNE,18,6.4,10.3,81,-99.99,,,0.00,CWS Microserver 1.4,2013-03-23 17:14:00,
2013-03-23 12:19:00,68.7,62.4,29.72,NNE,19,4.7,10.3,80,-99.99,,,0.00,CWS Microserver 1.4,2013-03-23 17:19:00,
2013-03-23 12:24:00,68.5,62.4,29.72,NNE,19,4.7,10.3,80,-99.99,,,0.00,CWS Microserver 1.4,2013-03-23 17:24:00,
2013-03-23 12:29:00,68.3,62.5,29.72,NNE,19,4.7,10.3,81,-99.99,,,0.00,CWS Microserver 1.4,2013-03-23 17:29:00,
2013-03-23 12:34:00,68.3,62.6,29.72,NE,54,5.6,5.9,82,-99.99,,,0.00,CWS Microserver 1.4,2013-03-23 17:34:00,
2013-03-23 12:41:00,68.0,62.8,29.72,NE,54,5.6,5.9,83,-99.99,,,0.00,CWS Microserver 1.4,2013-03-23 17:41:00,
2013-03-23 12:51:00,68.1,62.9,29.72,NNE,13,6.6,9.2,83,-99.99,,,0.00,CWS Microserver 1.4,2013-03-23 17:51:00,
2013-03-23 12:56:00,68.1,62.8,29.70,NNE,18,3.7,7.3,83,-99.99,,,0.00,CWS Microserver 1.4,2013-03-23 17:56:00,
2013-03-23 13:01:00,68.3,62.9,29.70,North,8,7.3,7.3,83,-99.99,,,0.00,CWS Microserver 1.4,2013-03-23 18:01:00,
2013-03-23 13:06:00,68.5,63.0,29.70,NNE,25,6.1,7.3,82,-99.99,,,0.00,CWS Microserver 1.4,2013-03-23 18:06:00,
2013-03-23 13:11:00,68.5,63.0,29.70,NNE,19,5.1,8.1,82,-99.99,,,0.00,CWS Microserver 1.4,2013-03-23 18:11:00,
2013-03-23 13:26:00,68.7,63.0,29.69,North,3,5.4,6.5,82,-99.99,,,0.00,CWS Microserver 1.4,2013-03-23 18:26:00,
2013-03-23 13:31:00,68.7,63.0,29.69,North,3,5.4,6.5,82,-99.99,,,0.00,CWS Microserver 1.4,2013-03-23 18:31:00,
2013-03-23 13:36:00,68.7,63.1,29.69,North,6,5.5,8.6,82,-99.99,,,0.00,CWS Microserver 1.4,2013-03-23 18:36:00,
2013-03-23 13:41:00,68.7,63.1,29.69,NNW,346,6.7,8.6,82,-99.99,,,0.00,CWS Microserver 1.4,2013-03-23 18:41:00,
2013-03-23 13:51:00,68.7,63.0,29.69,NW,323,8.7,10.7,82,-99.99,,,0.00,CWS Microserver 1.4,2013-03-23 18:51:00,
2013-03-23 13:56:00,68.7,63.0,29.69,NW,321,9.0,12.2,82,-99.99,,,0.00,CWS Microserver 1.4,2013-03-23 18:56:00,
2013-03-23 14:06:00,68.5,62.8,29.68,NNW,341,7.9,12.2,82,-99.99,,,0.00,CWS Microserver 1.4,2013-03-23 19:06:00,
2013-03-23 14:16:00,68.5,62.5,29.68,North,0,8.1,8.1,81,-99.99,,,0.00,CWS Microserver 1.4,2013-03-23 19:16:00,
2013-03-23 14:36:00,68.3,63.0,29.67,NNW,342,7.0,7.4,83,-99.99,,,0.00,CWS Microserver 1.4,2013-03-23 19:36:00,
2013-03-23 14:41:00,68.3,63.2,29.67,North,9,3.3,7.8,83,-99.99,,,0.00,CWS Microserver 1.4,2013-03-23 19:41:00,
2013-03-23 14:46:00,68.7,63.1,29.67,North,9,4.2,7.8,82,-99.99,,,0.00,CWS Microserver 1.4,2013-03-23 19:46:00,
2013-03-23 14:56:00,68.9,62.8,29.67,ESE,111,3.5,6.5,80,-99.99,,,0.00,CWS Microserver 1.4,2013-03-23 19:56:00,
2013-03-23 15:01:00,68.9,62.8,29.67,East,96,3.7,6.5,80,-99.99,,,0.00,CWS Microserver 1.4,2013-03-23 20:01:00,
2013-03-23 15:06:00,68.9,62.8,29.67,East,81,3.9,7.2,80,-99.99,,,0.00,CWS Microserver 1.4,2013-03-23 20:06:00,
2013-03-23 15:11:00,69.2,63.0,29.66,SE,127,3.7,7.2,80,-99.99,,,0.00,CWS Microserver 1.4,2013-03-23 20:11:00,
2013-03-23 15:16:00,69.4,63.1,29.66,SE,127,3.7,7.2,80,-99.99,,,0.00,CWS Microserver 1.4,2013-03-23 20:16:00,
2013-03-23 15:21:00,69.8,63.3,29.66,SE,127,3.7,7.2,80,-99.99,,,0.00,CWS Microserver 1.4,2013-03-23 20:21:00,
2013-03-23 15:26:00,69.9,63.2,29.65,SE,127,3.7,7.2,79,-99.99,,,0.00,CWS Microserver 1.4,2013-03-23 20:26:00,
2013-03-23 15:36:00,70.3,63.2,29.65,NNE,29,1.4,6.4,78,-99.99,,,0.00,CWS Microserver 1.4,2013-03-23 20:36:00,
2013-03-23 15:46:00,70.8,63.3,29.65,ENE,78,4.2,5.0,77,-99.99,,,0.00,CWS Microserver 1.4,2013-03-23 20:46:00,
2013-03-23 15:56:00,71.2,63.4,29.64,East,79,3.2,5.0,76,-99.99,,,0.00,CWS Microserver 1.4,2013-03-23 20:56:00,
2013-03-23 16:06:00,71.7,63.4,29.64,ENE,69,2.1,5.3,75,-99.99,,,0.00,CWS Microserver 1.4,2013-03-23 21:06:00,
2013-03-23 16:11:00,71.7,63.4,29.64,North,1,3.0,7.8,75,-99.99,,,0.00,CWS Microserver 1.4,2013-03-23 21:11:00,
2013-03-23 16:16:00,71.7,63.4,29.64,North,11,3.9,7.8,75,-99.99,,,0.00,CWS Microserver 1.4,2013-03-23 21:16:00,
2013-03-23 16:31:00,73.0,63.7,29.62,North,7,1.3,5.3,72,-99.99,,,0.00,CWS Microserver 1.4,2013-03-23 21:31:00,
2013-03-23 16:36:00,72.8,63.6,29.62,West,281,0.4,4.2,73,-99.99,,,0.00,CWS Microserver 1.4,2013-03-23 21:36:00,
2013-03-23 16:56:00,73.7,63.8,29.62,NE,35,1.4,4.6,71,-99.99,,,0.00,CWS Microserver 1.4,2013-03-23 21:56:00,
2013-03-23 17:11:00,73.5,64.1,29.61,North,349,2.6,4.6,72,-99.99,,,0.00,CWS Microserver 1.4,2013-03-23 22:11:00,
2013-03-23 17:16:00,73.5,64.0,29.61,NE,52,1.0,4.1,72,-99.99,,,0.00,CWS Microserver 1.4,2013-03-23 22:16:00,
2013-03-23 17:21:00,73.5,64.0,29.61,North,352,4.8,6.2,72,-99.99,,,0.00,CWS Microserver 1.4,2013-03-23 22:21:00,
2013-03-23 17:26:00,73.7,63.9,29.61,NNW,333,5.6,7.4,71,-99.99,,,0.00,CWS Microserver 1.4,2013-03-23 22:26:00,
2013-03-23 17:36:00,73.4,64.3,29.61,North,2,2.7,7.2,73,-99.99,,,0.00,CWS Microserver 1.4,2013-03-23 22:36:00,
2013-03-23 17:46:00,73.7,64.2,29.61,North,5,6.6,6.6,72,-99.99,,,0.00,CWS Microserver 1.4,2013-03-23 22:46:00,
2013-03-23 17:56:00,73.4,64.2,29.61,NNW,345,4.1,7.1,73,-99.99,,,0.00,CWS Microserver 1.4,2013-03-23 22:56:00,
2013-03-23 18:01:00,73.4,64.2,29.61,North,351,5.2,7.0,73,-99.99,,,0.00,CWS Microserver 1.4,2013-03-23 23:01:00,
2013-03-23 18:11:00,73.4,64.4,29.62,NNW,336,6.1,8.3,73,-99.99,,,0.00,CWS Microserver 1.4,2013-03-23 23:11:00,
2013-03-23 18:16:00,73.4,64.5,29.62,North,3,1.4,8.3,73,-99.99,,,0.00,CWS Microserver 1.4,2013-03-23 23:16:00,
2013-03-23 18:31:00,74.1,64.3,29.62,North,3,2.5,5.1,71,-99.99,,,0.00,CWS Microserver 1.4,2013-03-23 23:31:00,
2013-03-23 18:36:00,74.1,64.3,29.62,ENE,71,5.7,5.7,71,-99.99,,,0.00,CWS Microserver 1.4,2013-03-23 23:36:00,
2013-03-23 18:51:00,73.7,65.0,29.61,NNE,32,2.7,5.7,74,-99.99,,,0.00,CWS Microserver 1.4,2013-03-23 23:51:00,
2013-03-23 19:01:00,73.9,64.5,29.61,NE,54,3.8,3.9,72,-99.99,,,0.00,CWS Microserver 1.4,2013-03-24 00:01:00,
2013-03-23 19:16:00,73.5,64.3,29.62,North,4,4.9,5.6,73,-99.99,,,0.00,CWS Microserver 1.4,2013-03-24 00:16:00,
2013-03-23 19:36:00,73.2,64.3,29.64,NNW,347,5.2,6.3,73,-99.99,,,0.00,CWS Microserver 1.4,2013-03-24 00:36:00,
2013-03-23 19:46:00,73.2,64.3,29.64,NNW,333,6.1,8.5,73,-99.99,,,0.00,CWS Microserver 1.4,2013-03-24 00:46:00,
2013-03-23 19:51:00,73.2,64.3,29.64,NNW,335,6.5,8.5,73,-99.99,,,0.00,CWS Microserver 1.4,2013-03-24 00:51:00,
2013-03-23 19:56:00,73.2,64.4,29.65,NNW,339,5.8,8.5,74,-99.99,,,0.00,CWS Microserver 1.4,2013-03-24 00:56:00,
2013-03-23 20:01:00,73.0,64.4,29.65,NNW,342,4.8,7.9,74,-99.99,,,0.00,CWS Microserver 1.4,2013-03-24 01:01:00,
2013-03-23 20:06:00,73.0,64.2,29.66,NNW,345,8.7,8.7,73,-99.99,,,0.00,CWS Microserver 1.4,2013-03-24 01:06:00,
2013-03-23 20:11:00,73.0,64.2,29.66,NNW,327,6.5,9.3,73,-99.99,,,0.00,CWS Microserver 1.4,2013-03-24 01:11:00,
2013-03-23 20:16:00,73.0,64.2,29.66,NNW,333,6.7,9.3,74,-99.99,,,0.00,CWS Microserver 1.4,2013-03-24 01:16:00,
2013-03-23 20:21:00,73.0,64.2,29.66,North,351,5.3,7.8,74,-99.99,,,0.00,CWS Microserver 1.4,2013-03-24 01:21:00,
2013-03-23 20:26:00,73.0,64.2,29.66,North,11,4.8,7.0,74,-99.99,,,0.00,CWS Microserver 1.4,2013-03-24 01:26:00,
2013-03-23 20:31:00,72.5,63.9,29.66,NE,45,2.6,7.0,74,-99.99,,,0.00,CWS Microserver 1.4,2013-03-24 01:31:00,
2013-03-23 20:36:00,72.3,63.8,29.65,NE,45,2.6,7.0,74,-99.99,,,0.00,CWS Microserver 1.4,2013-03-24 01:36:00,
2013-03-23 20:51:00,71.7,63.7,29.66,NE,45,2.2,4.1,76,-99.99,,,0.00,CWS Microserver 1.4,2013-03-24 01:51:00,
2013-03-23 20:56:00,71.7,63.7,29.66,NNE,20,2.9,4.1,76,-99.99,,,0.00,CWS Microserver 1.4,2013-03-24 01:56:00,
2013-03-23 21:16:00,71.7,63.7,29.66,North,1,4.5,4.5,76,-99.99,,,0.00,CWS Microserver 1.4,2013-03-24 02:16:00,
2013-03-23 21:21:00,71.6,64.1,29.67,North,9,3.9,4.5,77,-99.99,,,0.00,CWS Microserver 1.4,2013-03-24 02:21:00,
2013-03-23 21:26:00,71.6,63.8,29.67,North,9,3.9,4.5,76,-99.99,,,0.00,CWS Microserver 1.4,2013-03-24 02:26:00,
2013-03-23 21:31:00,71.6,63.8,29.67,NNW,348,3.8,5.1,76,-99.99,,,0.00,CWS Microserver 1.4,2013-03-24 02:31:00,
2013-03-23 21:36:00,71.6,63.8,29.67,North,349,4.6,5.1,76,-99.99,,,0.00,CWS Microserver 1.4,2013-03-24 02:36:00,
2013-03-23 21:41:00,70.8,63.5,29.67,NNW,344,4.7,5.3,77,-99.99,,,0.00,CWS Microserver 1.4,2013-03-24 02:41:00,
2013-03-23 21:46:00,70.7,63.5,29.67,North,350,2.4,5.3,78,-99.99,,,0.00,CWS Microserver 1.4,2013-03-24 02:46:00,
2013-03-23 21:56:00,70.3,63.3,29.67,ENE,60,0.9,2.9,78,-99.99,,,0.00,CWS Microserver 1.4,2013-03-24 02:56:00,
2013-03-23 22:01:00,70.3,63.3,29.67,NE,40,1.1,2.0,78,-99.99,,,0.00,CWS Microserver 1.4,2013-03-24 03:01:00,
2013-03-23 22:06:00,70.3,63.3,29.67,North,10,2.0,3.0,78,-99.99,,,0.00,CWS Microserver 1.4,2013-03-24 03:06:00,
2013-03-23 22:16:00,70.5,64.0,29.68,North,353,2.9,3.8,80,-99.99,,,0.00,CWS Microserver 1.4,2013-03-24 03:16:00,
2013-03-23 22:21:00,70.3,63.5,29.68,North,353,2.9,3.8,79,-99.99,,,0.00,CWS Microserver 1.4,2013-03-24 03:21:00,
2013-03-23 22:26:00,70.3,63.6,29.68,North,353,2.9,3.8,79,-99.99,,,0.00,CWS Microserver 1.4,2013-03-24 03:26:00,
2013-03-23 22:41:00,70.3,63.7,29.68,NNW,338,5.8,7.4,79,-99.99,,,0.00,CWS Microserver 1.4,2013-03-24 03:41:00,
2013-03-23 22:46:00,70.5,63.6,29.68,NNW,333,6.3,7.4,79,-99.99,,,0.00,CWS Microserver 1.4,2013-03-24 03:46:00,
2013-03-23 22:51:00,69.8,63.2,29.69,NNW,330,5.9,7.4,79,-99.99,,,0.00,CWS Microserver 1.4,2013-03-24 03:51:00,
2013-03-23 22:56:00,69.6,63.1,29.69,NNW,332,6.1,7.4,79,-99.99,,,0.00,CWS Microserver 1.4,2013-03-24 03:56:00,
2013-03-23 23:06:00,69.0,62.7,29.69,NNW,337,4.8,8.6,80,-99.99,,,0.00,CWS Microserver 1.4,2013-03-24 04:06:00,
2013-03-23 23:11:00,68.9,62.5,29.69,NNW,338,6.9,9.6,80,-99.99,,,0.00,CWS Microserver 1.4,2013-03-24 04:11:00,
2013-03-23 23:21:00,68.9,62.5,29.69,NNW,341,7.3,8.7,80,-99.99,,,0.00,CWS Microserver 1.4,2013-03-24 04:21:00,
2013-03-23 23:26:00,68.1,62.0,29.68,NNW,327,9.0,9.0,81,-99.99,,,0.00,CWS Microserver 1.4,2013-03-24 04:26:00,
2013-03-23 23:31:00,68.0,62.0,29.68,North,350,4.8,9.2,81,-99.99,,,0.00,CWS Microserver 1.4,2013-03-24 04:31:00,
2013-03-23 23:41:00,67.8,61.7,29.68,NNW,345,4.0,7.2,80,-99.99,,,0.00,CWS Microserver 1.4,2013-03-24 04:41:00,
2013-03-23 23:46:00,67.6,61.5,29.67,NE,50,1.1,6.3,80,-99.99,,,0.00,CWS Microserver 1.4,2013-03-24 04:46:00,
2013-03-23 23:56:00,67.6,61.5,29.67,NE,34,3.9,6.6,80,-99.99,,,0.00,CWS Microserver 1.4,2013-03-24 04:56:00,